Location: Baye
(47.8572°N, 3.6044°W)
Time: 10:25:14
(UTC+00:00)

Daily predictions for brighter satellites

Satellite Brightness Start Highest point End
(mag) Time Altitude Azimuth Time Altitude Azimuth Time Altitude Azimuth
Cosmos 1092 Rocket 4.1 16:46:19 10° N 16:52:38 61° ENE 16:58:51 10° SSE
Cosmos 1898 Rocket 3.8 16:47:31 10° NNW 16:52:46 76° WSW 16:57:57 10° SSE
CZ-4B R/B 4.3 16:50:52 10° ESE 16:54:38 20° ENE 16:58:23 10° NNE
ATLAS CENTAUR R/B 3.2 16:45:37 10° SW 16:56:48 80° SE 17:01:12 10° NE
USA 267 3.9 16:51:32 10° ENE 16:57:45 44° SE 17:03:56 10° SSW
Cosmos 1939 Rocket 3.3 16:55:15 10° SE 16:59:04 40° ENE 17:02:53 10° N
USA 306 3.6 16:55:17 10° WNW 16:59:17 38° N 17:03:16 10° E
Cosmos 1633 Rocket 4.1 16:57:32 10° NNE 17:01:12 25° ENE 17:04:51 10° SE
Cosmos 1151 Rocket 4.2 16:57:54 10° SE 17:01:23 24° E 17:04:55 10° NE
Cosmos 1666 3.7 16:59:55 10° NNE 17:03:02 25° ENE 17:06:06 10° SE
Cosmos 1782 3.2 16:59:33 10° SSE 17:03:19 42° E 17:07:06 10° NNE
Cosmos 2360 Rocket 3.7 17:00:35 10° N 17:04:03 16° NE 17:07:30 10° ENE
ISS -2.6 17:01:44 10° WNW 17:05:01 46° SSW 17:08:17 10° SE
Cosmos 1763 Rocket 3.9 17:02:48 10° SW 17:07:50 63° WNW 17:12:57 10° NNE
SeaSat 1 3.7 17:04:48 10° NNE 17:09:20 38° NW 17:13:51 10° WSW
SL-08 R/B 3.3 17:05:01 10° NNE 17:09:43 89° ESE 17:14:20 10° SSW
Cosmos 1818 3.8 17:04:59 10° NNW 17:10:20 49° NE 17:15:37 10° ESE
NOAA 12 4.1 17:06:22 10° SSE 17:11:41 81° ENE 17:17:01 10° NNW
Cosmos 1340 Rocket 4.4 17:09:21 10° NNW 17:13:11 40° W 17:16:59 10° SSW
CZ-2C R/B 3.9 17:13:01 10° S 17:14:23 11° SSE 17:15:45 10° SSE
Meteor 2-14 Rocket 4.4 17:09:25 10° N 17:15:32 70° ENE 17:21:34 10° SSE
ATLAS 5 CENTAUR R/B 3.4 17:07:48 10° NW 17:16:37 36° NNE 17:19:39 12° E
Cosmos 1627 Rocket 4.4 17:10:56 10° N 17:17:08 77° E 17:23:13 10° SSE
Cosmos 2279 Rocket 4.4 17:11:41 10° SSE 17:17:24 41° E 17:23:08 10° NNE
Cosmos 841 Rocket 3.4 17:12:56 10° SSW 17:18:04 75° ESE 17:23:13 10° NNE
Meteor PRIRODA 3.8 17:15:12 10° S 17:18:48 76° WSW 17:22:27 10° NNW
ERBS 4.2 17:16:47 10° NW 17:18:53 16° N 17:20:46 11° NE
Cosmos 1743 Rocket 4.5 17:15:25 10° NNW 17:19:38 52° W 17:23:50 10° S
USA 307 3.5 17:15:53 10° WNW 17:19:57 41° NNE 17:23:33 13° E
CZ-4C R/B 4.2 17:16:49 10° N 17:20:26 45° WNW 17:23:53 10° SW
CZ-4C R/B 3.0 17:14:07 10° NW 17:21:17 82° NE 17:29:43 10° SE
Spot 1 4.4 17:16:29 10° NNE 17:21:19 90° WNW 17:26:22 10° SSW
Lacrosse 5 rocket 1.2 17:19:33 10° NW 17:23:24 63° NNE 17:27:29 10° ESE
Cosmos 1697 Rocket 4.0 17:19:18 10° NW 17:24:37 44° WSW 17:29:54 10° S
Cosmos 372 Rocket 4.1 17:19:31 10° NNW 17:24:47 85° WSW 17:30:03 10° SSE
ATLAS 2AS CENTAUR R/B 4.2 17:20:13 10° NW 17:26:07 23° N 17:31:18 12° NE
Cosmos 1937 Rocket 4.4 17:21:06 10° NNW 17:26:18 55° WSW 17:31:28 10° S
Cosmos 2322 Rocket 3.0 17:22:29 10° NNW 17:27:27 29° NE 17:32:24 10° ESE
Cosmos 2150 Rocket 4.5 17:24:50 10° N 17:29:39 37° ENE 17:34:29 10° SE
AQUARIUS 4.1 17:25:55 10° SSE 17:30:22 67° ENE 17:34:51 10° N
Cosmos 1666 Rocket 3.6 17:26:33 10° N 17:30:57 58° ENE 17:35:16 10° SSE
Cosmos 1980 Rocket 2.5 17:25:20 10° NNW 17:31:00 74° WSW 17:36:36 10° SSE
Cosmos 1328 Rocket 4.2 17:27:20 10° SSE 17:31:21 35° E 17:35:23 10° NNE
USA 234 3.3 17:25:41 10° ESE 17:32:10 71° NNE 17:38:41 10° NW
Cosmos 1470 Rocket 4.3 17:30:25 10° N 17:34:28 32° ENE 17:38:30 10° SE
Cosmos 1544 4.2 17:31:40 10° NNE 17:34:32 22° ENE 17:37:24 10° ESE
Cosmos 1125 Rocket 3.9 17:30:58 10° N 17:35:54 39° ENE 17:40:48 10° SE
CORIOLIS 4.1 17:30:30 10° SSE 17:35:54 79° ENE 17:41:22 10° NNW
X-37B 2.7 17:34:46 10° S 17:36:27 14° SSE 17:37:49 11° ESE
Meteor 1-26 Rocket 4.4 17:30:56 10° S 17:36:57 89° E 17:43:03 10° NNE
Cosmos 1812 2.7 17:33:18 10° S 17:37:05 60° E 17:40:54 10° NNE
Cosmos 2026 Rocket 4.1 17:31:18 10° N 17:37:27 79° W 17:43:29 10° S
PSLV R/B 3.7 17:34:51 10° SSE 17:38:28 55° ENE 17:42:10 10° N
H-2A R/B 2.1 17:34:22 10° SE 17:39:17 52° ENE 17:44:08 10° N
Cosmos 1634 Rocket 4.0 17:33:22 10° S 17:39:42 89° ESE 17:46:05 10° N
Okean O Rocket 2.4 17:37:19 10° SE 17:41:11 30° ENE 17:45:04 10° N
Meteor 1-11 Rocket 4.3 17:36:21 10° N 17:41:28 34° ENE 17:46:39 10° SE
ATLAS CENTAUR R/B 4.0 17:41:07 10° NNW 17:41:45 10° N 17:42:24 10° N
USA 308 3.2 17:38:37 10° WNW 17:42:45 47° NNE 17:45:21 21° E
Meteor 2-21 Rocket 4.4 17:38:03 10° N 17:44:11 84° E 17:50:14 10° S
Sich 1 3.8 17:42:10 10° NNW 17:46:22 55° W 17:50:35 10° S
CZ-2C R/B 4.2 17:42:14 10° S 17:46:49 42° W 17:51:20 10° NNW
SL-16 R/B 2.4 17:42:49 10° NNW 17:48:21 49° NE 17:53:49 10° SE
Cosmos 540 Rocket 4.3 17:45:07 10° SW 17:50:02 48° WNW 17:55:01 10° NNE
SKYMED 2 4.3 17:47:47 18° NE 17:50:18 32° E 17:54:11 10° SSE
Cosmos 2082 Rocket 2.4 17:45:30 10° SSW 17:51:11 73° WNW 17:56:52 10° NNE
ARGOS 3.5 17:46:11 10° SE 17:51:14 43° ENE 17:56:19 10° N
Meteor 1-5 Rocket 4.3 17:47:38 10° N 17:53:40 85° E 17:59:32 10° SSE
SMAP 3.6 17:50:02 10° S 17:54:39 62° W 17:59:17 10° NNW
deb Chang Zheng 4 3.8 17:52:33 10° SE 17:56:40 46° ENE 18:00:48 10° N
COSMOS 2455 3.3 17:53:30 10° SW 17:59:25 59° NW 18:04:54 13° NNE
Cosmos 1833 Rocket 4.2 17:59:46 10° WSW 18:04:46 32° NW 18:09:49 10° NNE
Cosmos 2278 4.4 17:59:37 10° NW 18:05:12 57° WSW 18:10:44 10° S
USA 305 2.9 18:02:56 10° WNW 18:07:10 63° NNE 18:08:52 34° E
Cosmos 2333 Rocket 3.3 18:03:17 10° N 18:07:51 23° NE 18:08:05 23° NE
Cosmos 1356 Rocket 3.6 18:05:07 10° N 18:09:12 47° ENE 18:13:19 10° SSE
CZ-2C R/B 2.6 18:06:50 12° NNE 18:11:33 56° E 18:16:36 10° S
Cosmos 2180 Rocket 4.4 18:08:56 10° S 18:15:15 83° E 18:21:32 10° N
Cosmos 2219 Rocket 3.5 18:11:21 10° N 18:15:05 21° NE 18:15:05 21° NE
Cosmos 44 Rocket 3.8 18:11:36 10° NW 18:16:26 59° WSW 18:21:06 10° SSE
Cosmos 1655 Rocket 3.9 18:10:46 10° N 18:17:11 72° E 18:23:31 10° SSE
Aureole 3 Rocket 4.0 18:13:27 10° SSE 18:17:50 41° E 18:23:53 10° NNE
Cosmos 1515 Rocket 3.6 18:14:03 10° S 18:18:24 58° E 18:20:27 29° NNE
Cosmos 921 Rocket 2.8 18:16:31 10° SSW 18:20:44 84° ESE 18:22:47 30° NNE
CZ-4 R/B 4.3 18:21:46 10° SSE 18:25:53 74° ENE 18:30:01 10° N
Cosmos 546 4.4 18:24:58 10° WSW 18:28:48 82° SSE 18:29:11 71° E
CZ-4B R/B 3.3 18:29:17 10° S 18:34:40 74° WSW 18:40:00 10° NNW
Cosmos 371 Rocket 4.2 18:30:40 10° N 18:33:50 32° NNE 18:33:50 32° NNE
Cosmos 2298 Rocket 4.4 18:31:15 10° NNW 18:36:32 64° WSW 18:41:48 10° S
COSMO-SKYMED 1 2.5 18:36:24 30° N 18:38:30 84° WNW 18:42:50 10° SSW
USA 306 2.7 18:35:14 10° WNW 18:39:30 90° NNE 18:39:52 74° ESE
USA 267 3.3 18:37:47 32° NE 18:41:01 71° NNW 18:47:31 10° WSW
Landsat 5 3.4 18:41:36 63° SSE 18:41:36 63° SSE 18:45:03 10° S
MOS 1-B Rocket 4.4 18:35:34 10° N 18:41:33 71° WNW 18:48:26 10° SSW
Meteor 2-15 Rocket 4.3 18:36:55 10° S 18:43:02 86° E 18:49:11 10° N
APEX 3.4 18:39:53 10° SW 18:43:02 58° WSW 18:43:02 58° WSW
Meteor 1-27 Rocket 3.5 18:38:51 10° S 18:44:18 69° E 18:46:30 37° NNE
YAOGAN 1 4.3 18:48:29 21° N 18:48:29 21° N 18:50:02 10° N
Cosmos 836 Rocket 4.4 18:41:44 10° SSW 18:47:01 78° ESE 18:48:20 52° NE
Cosmos 2360 Rocket 2.1 18:43:34 10° NNW 18:49:14 65° ENE 18:50:07 56° ESE
Cosmos 2237 4.1 18:46:58 10° NNW 18:52:43 89° NE 18:55:53 28° SSE
CZ-2C R/B 3.7 18:50:44 10° SW 18:52:59 14° S 18:53:23 14° S
USA 307 3.2 18:55:50 10° WNW 18:59:35 65° W 18:59:35 65° W
Lacrosse 5 rocket 3.5 18:59:01 10° WNW 19:02:16 24° SW 19:04:38 15° S
SL-08 RB Rocket 4.0 18:57:57 10° S 19:02:33 66° W 19:07:08 10° NNW
Cosmos 1933 Rocket 4.4 19:02:09 10° NNW 19:06:20 47° W 19:10:30 10° SSW
X-37B 3.7 19:08:44 10° WSW 19:09:02 12° WSW 19:09:02 12° WSW
Cosmos 2322 Rocket 2.7 19:06:16 10° NW 19:11:52 58° WSW 19:17:08 11° S
COSMOS 2428 4.2 19:08:08 10° NNW 19:10:45 24° N 19:10:45 24° N
USA 234 4.1 19:10:00 14° SSE 19:15:25 45° SW 19:21:40 10° WNW
NOSS 3-4 (A) 3.9 19:09:55 10° NW 19:16:19 54° NNE 19:16:19 54° NNE
NOSS 3-4 (C) 3.9 19:10:01 10° NW 19:16:24 53° NNE 19:16:24 53° NNE
Okean O Rocket 3.3 19:13:26 10° SSW 19:17:27 33° W 19:21:30 10° NNW
H-2A R/B 4.3 19:15:01 10° SW 19:19:00 23° W 19:22:57 10° NW
ATLAS 2AS CENTAUR R/B 3.7 19:12:45 10° NW 19:18:44 33° NNE 19:18:44 33° NNE
Cosmos 1867 3.6 19:13:59 10° SW 19:19:10 77° W 19:19:10 77° W
GEOS 3 Rocket 4.2 19:23:02 50° NNW 19:23:02 50° NNW 19:26:52 10° NW
USA 308 4.3 19:18:34 10° WNW 19:21:24 37° W 19:21:24 37° W
NOSS 3-3 (A) 3.9 19:20:52 10° SW 19:25:51 69° SSW 19:25:51 69° SSW
NOSS 3-3 (C) 3.9 19:20:58 10° SW 19:25:55 69° SSW 19:25:55 69° SSW
ATLAS CENTAUR R/B 4.0 19:23:13 10° WNW 19:27:07 22° NW 19:27:07 22° NW
SL-16 R/B 3.9 19:27:19 10° NW 19:32:13 31° WSW 19:37:06 10° SSW
Cosmos 2237 Rocket 4.5 19:30:21 10° N 19:30:54 12° N 19:30:54 12° N
Cosmos 2082 Rocket 4.4 19:32:33 10° W 19:36:17 18° NW 19:38:48 14° N
Cosmos 2333 Rocket 3.5 19:47:02 10° NNW 19:50:07 33° NNW 19:50:07 33° NNW
Cosmos 2219 Rocket 3.9 19:54:39 10° NNW 19:56:50 24° NNW 19:56:50 24° NNW
USA 267 4.4 20:25:08 36° NW 20:25:08 36° NW 20:29:36 10° WNW
Cosmos 2360 Rocket 4.3 20:28:26 10° NW 20:31:58 22° W 20:31:58 22° W
